Location: Strawberry
(45.6646°N, 111.9596°W)
Time: 23:00:59
(UTC+00:00)

N. Korean satellite - Pass Details

Date: 24 August 2022
Orbit: 428 x 468 km, 97.3° (Epoch: 24 September)

Event Time Altitude Azimuth Distance (km) Brightness Sun altitude
Rises 11:42:55 0° 31° (NNE) 2,529 11.3 -10.0°
Reaches altitude 10° 11:45:48 10° 57° (ENE) 1,638 10.9 -9.5°
Maximum altitude 11:47:45 14° 91° (E) 1,390 9.9 -9.2°
Drops below altitude 10° 11:49:38 10° 124° (SE) 1,609 9.6 -8.9°
Sets 11:52:29 0° 151° (SSE) 2,477 10.2 -8.5°
